NOAA 16 DEB, 41526

Orbit data source: Space-Track

NOAA 16 DEB, 41526 is space debris in SSO originally from a launch on Thu, 21 Sep 2000 UTC launched from the Air Force Western Test Range (AFWTR). Debris objects in space refer to the collection of defunct objects orbiting the Earth. Examples of debris include non-operational satellites, rocket bodies, and fragments generated from explosions, collisions, or faulty payload assembly.

Loading next visibility...
Identifier
41526, 2000-055NA
Orbit
SSO
Country
Flag of USUS
Related business
Manufacturer
Unknown
Mission
Spacecraft
Bus & Motor
Unknown
Mass
Unknown
Launch date (UTC)
2000-09-21 (25 years ago)
Launch vehicle
Unknown
Launch site
Air Force Western Test Range (AFWTR)
Object type
Payload
Rocket body
Debris
Shape & HBR
Unknown shape, 0.1 m
Radar Cross Section
Small (<0.1 m²)

Expand to show TLE details & history
Last TLE update: 21 hours ago

TLE from 21 hours ago
0 NOAA 16 DEB
1 41526U 00055NA  26036.00495624  .00012892  00000-0  34193-2 0  9999
2 41526  99.0069 231.1904 0019448 229.1670 130.7836 14.48709833513493
Epoch: 2026-02-05T00:07Z
TLE epoch observation values (Epoch: 2026-02-05T00:07:08.219Z)
Latitude
0.00003°
Longitude
94.24275°
Altitude
741.856 km
Speed
7.479 km/s
True Right ascension
15h 24m 45s
True Declination
0° 00' 00"
Sunlit
Object was in daylight at epoch
Visualization orbit readout
Latitude
Unknown
Longitude
Unknown
Altitude
Unknown
Speed
Unknown
Apparent Right ascension
Unknown
Apparent Declination
Unknown
Sunlit
N/A
Visualization observer readout
Local Sidereal Time
23:11:15
Azimuth
Unknown
Elevation
Unknown
Doppler factor
Unknown
Orbital elements
Apogee altitude
740.819 km
Perigee altitude
713.182 km
Semi-major axis
7,105.137 km
Eccentricity
0.00194
Inclination
99.0069°
RAAN
231.1904°
Arg. of periapsis
229.167°
True anomaly
130.95208°
Mean anomaly
130.7836°
Eccentric anomaly
130.86786°
Mean motion
3.62397 °/min
Orbital period
99.34 mins
BSTAR
0.0034193
Loading maneuver chart data...
Computing Atmospheric mass density...
Loading historical data...
Loading historical data...
Loading historical data...
Loading historical data...
Loading historical data...
Loading historical data...
Loading historical data...

Documentation

Showing up to 5 results
|